OBJECT BR, 62672

Orbit data source: Space-Track

You're viewing an Uncataloged Satellite

Recently launched and/or uncataloged satellites may have evolving metadata. Metadata may include but not limited to: Owner, Maufacturer, Bus, Motor, and Mission.

OBJECT BR, 62672 is a satellite in SSO that was launched on Tue, 14 Jan 2025 UTC via an FALCON 9 launch vehicle from the Air Force Western Test Range (AFWTR). Unknown objects in Earth's orbit typically refer to objects detected orbiting the Earth but have not yet been identified or cataloged. These objects could be anything from previously untracked satellites, spent rocket stages, debris from satellite collisions, or even natural meteoroids temporarily captured by Earth's gravity.

Loading next visibility...
Identifier
62672, 2025-009BR
Orbit
SSO
Country
Flag of TBDTBD
Related business
None
Manufacturer
Unknown
Mission
Operational Commercial Communications
Bus & Motor
Unknown
Mass
Unknown
Launch date (UTC)
2025-01-14 (9 months ago)
Launch vehicle
FALCON 9
Launch site
Air Force Western Test Range (AFWTR)
Object type
Unknown
Shape & HBR
Box + 2 Pan, 0.4 m
Radar Cross Section
0.014 m², Medium (>0.1 m² and < 1m²)

Expand to show TLE details & history
Last TLE update: 17 hours ago

TLE from 17 hours ago
0 OBJECT BR
1 62672U 25009BR  25300.65914051  .00005863  00000-0  27237-3 0  9996
2 62672  97.4175  18.4143 0006319  76.1275 284.0663 15.20358472101026
Epoch: 2025-10-27T15:49Z
TLE epoch observation values (Epoch: 2025-10-27T15:49:09.740Z)
Latitude
0.00001°
Longitude
104.8659°
Altitude
506.794 km
Speed
7.611 km/s
True Right ascension
01h 13m 39s
True Declination
0° 00' 00"
Sunlit
Object was in full shadow at epoch
Visualization orbit readout
Latitude
Unknown
Longitude
Unknown
Altitude
Unknown
Speed
Unknown
Apparent Right ascension
Unknown
Apparent Declination
Unknown
Sunlit
N/A
Visualization observer readout
Local Sidereal Time
03:51:28
Azimuth
Unknown
Elevation
Unknown
Doppler factor
Unknown
Orbital elements
Apogee altitude
506.072 km
Perigee altitude
497.377 km
Semi-major axis
6,879.861 km
Eccentricity
0.00063
Inclination
97.4175°
RAAN
18.4143°
Arg. of periapsis
76.1275°
True anomaly
283.99605°
Mean anomaly
284.0663°
Eccentric anomaly
284.03118°
Mean motion
3.80341 °/min
Orbital period
94.65 mins
BSTAR
0.00027237
Loading maneuver chart data...
Computing Atmospheric mass density...
Loading historical data...
Loading historical data...
Loading historical data...
Loading historical data...
Loading historical data...
Loading historical data...
Loading historical data...

Documentation

Showing up to 5 results
|